KC4KQE Weather Reports


Display with metric or nautical units.
time (UTC)temp
F
wind
direction
speed
MPH
gust
MPH
rain 1hr
in
rain 24hr
in
rain mn
in
humidity
%
barometer
mb
20260906110915 80 5 0.0 1.0 0.00 0.00 0.00 47 1012.1
20260906110416 80 355 1.0 2.0 0.00 0.00 0.00 47 1012.1
20260906105915 80 339 0.0 2.0 0.00 0.00 0.00 46 1012.2
20260906105415 80 339 0.0 2.0 0.00 0.00 0.00 46 1012.2
20260906104915 81 355 2.0 4.0 0.00 0.00 0.00 45 1012.2
20260906104415 81 355 2.0 3.0 0.00 0.00 0.00 45 1012.1
20260906103917 81 332 2.0 4.0 0.00 0.00 0.00 44 1012.1
20260906103415 81 329 1.0 4.0 0.00 0.00 0.00 44 1012.1
20260906102916 81 329 3.0 4.0 0.00 0.00 0.00 44 1012.1
20260906102415 81 319 3.0 4.0 0.00 0.00 0.00 43 1012.1
20260906101917 81 330 1.0 3.0 0.00 0.00 0.00 43 1012.0
20260906101415 82 321 0.0 3.0 0.00 0.00 0.00 43 1012.1
20260906100915 82 320 1.0 4.0 0.00 0.00 0.00 43 1012.0
20260906100420 82 319 3.0 4.0 0.00 0.00 0.00 43 1012.1
20260906095915 82 319 1.0 2.0 0.00 0.00 0.00 43 1012.1
20260906095415 82 307 0.0 3.0 0.00 0.00 0.00 43 1012.1
20260906094916 82 343 1.0 3.0 0.00 0.00 0.00 43 1012.1
20260906094415 82 343 0.0 3.0 0.00 0.00 0.00 43 1012.1
20260906093916 82 346 1.0 3.0 0.00 0.00 0.00 43 1012.1
20260906093415 82 348 1.0 3.0 0.00 0.00 0.00 43 1012.1
20260906092915 82 350 1.0 3.0 0.00 0.00 0.00 43 1012.1
20260906092415 82 344 1.0 3.0 0.00 0.00 0.00 43 1012.1
20260906091915 82 355 2.0 3.0 0.00 0.00 0.00 43 1012.1
20260906091415 82 351 1.0 3.0 0.00 0.00 0.00 43 1012.1
20260906090916 82 351 0.0 2.0 0.00 0.00 0.00 42 1012.2
20260906090415 83 350 1.0 3.0 0.00 0.00 0.00 42 1012.1
20260906085915 83 355 2.0 3.0 0.00 0.00 0.00 41 1012.2
20260906085416 84 0 0.0 3.0 0.00 0.00 0.00 40 1012.3
20260906084915 84 355 2.0 3.0 0.00 0.00 0.00 40 1012.3
20260906084415 84 0 2.0 3.0 0.00 0.00 0.00 40 1012.3
20260906083915 83 5 0.0 3.0 0.00 0.00 0.00 40 1012.3
20260906083416 83 10 0.0 2.0 0.00 0.00 0.00 41 1012.4
20260906082915 83 0 0.0 1.0 0.00 0.00 0.00 41 1012.4
20260906082416 83 5 0.0 4.0 0.00 0.00 0.00 41 1012.5
20260906081916 84 5 2.0 3.0 0.00 0.00 0.00 40 1012.5
20260906081415 84 350 2.0 3.0 0.00 0.00 0.00 40 1012.6
20260906080915 83 355 2.0 3.0 0.00 0.00 0.00 40 1012.6
20260906080415 83 346 3.0 3.0 0.00 0.00 0.00 40 1012.6
20260906075915 83 355 1.0 4.0 0.00 0.00 0.00 41 1012.7
20260906075415 83 313 1.0 3.0 0.00 0.00 0.00 41 1012.7
20260906074916 83 303 0.0 2.0 0.00 0.00 0.00 41 1012.7
20260906074416 83 334 0.0 1.0 0.00 0.00 0.00 41 1012.7
20260906073915 84 334 0.0 2.0 0.00 0.00 0.00 41 1012.7
20260906073415 84 319 0.0 1.0 0.00 0.00 0.00 40 1012.7
20260906072915 85 321 0.0 1.0 0.00 0.00 0.00 39 1012.8
20260906072415 85 336 0.0 2.0 0.00 0.00 0.00 38 1012.7
20260906071915 86 342 0.0 2.0 0.00 0.00 0.00 37 1012.7
20260906071415 87 343 0.0 2.0 0.00 0.00 0.00 36 1012.8
20260906070915 88 333 1.0 3.0 0.00 0.00 0.00 35 1012.8
20260906070415 88 344 0.0 4.0 0.00 0.00 0.00 34 1012.7
20260906065915 88 349 0.0 4.0 0.00 0.00 0.00 34 1012.7
20260906065416 88 355 2.0 5.0 0.00 0.00 0.00 34 1012.8
20260906064916 88 5 2.0 5.0 0.00 0.00 0.00 35 1012.8
20260906064415 87 5 0.0 5.0 0.00 0.00 0.00 36 1012.8
20260906063916 87 355 3.0 3.0 0.00 0.00 0.00 36 1012.7
20260906063416 88 0 0.0 2.0 0.00 0.00 0.00 35 1012.8
20260906062915 88 344 0.0 2.0 0.00 0.00 0.00 35 1012.7
20260906062416 88 331 1.0 4.0 0.00 0.00 0.00 34 1012.7
20260906061916 88 15 0.0 3.0 0.00 0.00 0.00 34 1012.8
20260906061415 88 31 0.0 2.0 0.00 0.00 0.00 34 1012.7
20260906060915 94 32 1.0 1.0 0.00 0.00 0.00 27 1012.7
20260906060415 94 0 0.0 2.0 0.00 0.00 0.00 27 1012.8
20260906055916 94 355 1.0 4.0 0.00 0.00 0.00 27 1012.9
20260906055417 94 17 2.0 4.0 0.00 0.00 0.00 27 1012.8
20260906054915 94 38 0.0 3.0 0.00 0.00 0.00 27 1012.8
20260906054415 94 5 0.0 1.0 0.00 0.00 0.00 27 1012.9
20260906053915 94 355 1.0 3.0 0.00 0.00 0.00 27 1012.9
20260906053415 94 355 0.0 2.0 0.00 0.00 0.00 27 1012.9
20260906052915 94 355 0.0 2.0 0.00 0.00 0.00 27 1012.9
20260906052415 94 20 1.0 4.0 0.00 0.00 0.00 27 1012.9
20260906051915 94 5 2.0 3.0 0.00 0.00 0.00 27 1012.9
20260906051416 94 351 0.0 3.0 0.00 0.00 0.00 27 1012.9
20260906050915 94 5 2.0 4.0 0.00 0.00 0.00 27 1012.9
20260906050417 94 0 1.0 5.0 0.00 0.00 0.00 27 1012.9
20260906045916 94 355 5.0 5.0 0.00 0.00 0.00 27 1012.9
20260906045415 94 355 3.0 3.0 0.00 0.00 0.00 27 1012.9
20260906044915 94 355 1.0 4.0 0.00 0.00 0.00 27 1013.0
20260906044415 94 355 0.0 4.0 0.00 0.00 0.00 27 1013.0
20260906043916 94 30 0.0 4.0 0.00 0.00 0.00 27 1012.9
20260906043415 94 34 2.0 4.0 0.00 0.00 0.00 27 1013.0
20260906042916 94 9 1.0 3.0 0.00 0.00 0.00 27 1013.0
20260906042415 94 0 2.0 3.0 0.00 0.00 0.00 27 1013.0
20260906041915 94 355 0.0 3.0 0.00 0.00 0.00 27 1013.0
20260906041415 94 355 1.0 3.0 0.00 0.00 0.00 27 1013.0
20260906040915 94 348 3.0 3.0 0.00 0.00 0.00 27 1012.9
20260906040417 94 342 1.0 2.0 0.00 0.00 0.00 27 1012.9
20260906035915 94 341 0.0 2.0 0.00 0.00 0.00 27 1013.0
20260906035415 94 324 2.0 3.0 0.00 0.00 0.00 27 1012.9
20260906034916 94 340 1.0 4.0 0.00 0.00 0.00 27 1012.9
20260906034415 94 331 2.0 4.0 0.00 0.00 0.00 27 1012.9
20260906033915 94 327 1.0 2.0 0.00 0.00 0.00 27 1012.8
20260906033415 94 322 2.0 3.0 0.00 0.00 0.00 27 1012.7
20260906032915 94 318 2.0 3.0 0.00 0.00 0.00 27 1012.7
20260906032415 94 325 3.0 4.0 0.00 0.00 0.00 27 1012.7
20260906031916 94 321 1.0 3.0 0.00 0.00 0.00 27 1012.6
20260906031415 94 309 2.0 6.0 0.00 0.00 0.00 27 1012.6
20260906030915 94 285 1.0 5.0 0.00 0.00 0.00 27 1012.6
20260906030415 94 302 1.0 5.0 0.00 0.00 0.00 27 1012.5
20260906025915 94 311 5.0 6.0 0.00 0.00 0.00 27 1012.4
20260906025415 94 279 3.0 7.0 0.00 0.00 0.00 27 1012.4
20260906024915 94 323 1.0 4.0 0.00 0.00 0.00 27 1012.4
20260906024415 94 296 1.0 4.0 0.00 0.00 0.00 27 1012.3
20260906023920 94 300 2.0 6.0 0.00 0.00 0.00 27 1012.2
20260906023415 94 305 3.0 7.0 0.00 0.00 0.00 27 1012.2
20260906022917 94 298 2.0 6.0 0.00 0.00 0.00 27 1012.1
20260906022415 94 288 2.0 7.0 0.00 0.00 0.00 27 1012.1
20260906021915 94 258 2.0 9.0 0.00 0.00 0.00 27 1012.0
20260906021415 94 296 3.0 6.0 0.00 0.00 0.00 27 1012.0
20260906020915 94 282 1.0 6.0 0.00 0.00 0.00 27 1012.0
20260906020415 94 336 6.0 8.0 0.00 0.00 0.00 27 1012.0
20260906015916 94 266 7.0 9.0 0.00 0.00 0.00 27 1012.1
20260906015415 94 277 4.0 10.0 0.00 0.00 0.00 27 1012.1
20260906014915 94 325 6.0 12.0 0.00 0.00 0.00 27 1012.1
20260906014415 94 319 3.0 12.0 0.00 0.00 0.00 27 1012.2
20260906013917 95 275 7.0 15.0 0.00 0.00 0.00 27 1012.1
20260906013415 95 269 6.0 15.0 0.00 0.00 0.00 26 1012.1
20260906012915 95 314 10.0 13.0 0.00 0.00 0.00 26 1012.1
20260906012415 95 296 6.0 13.0 0.00 0.00 0.00 27 1012.2
20260906011915 96 277 5.0 14.0 0.00 0.00 0.00 27 1012.1
20260906011415 96 305 8.0 14.0 0.00 0.00 0.00 27 1012.1
20260906010915 96 313 8.0 12.0 0.00 0.00 0.00 27 1012.1
20260906010415 96 321 6.0 13.0 0.00 0.00 0.00 27 1012.1
20260906005915 97 310 7.0 13.0 0.00 0.00 0.00 27 1012.2
20260906005415 97 277 8.0 13.0 0.00 0.00 0.00 27 1012.1
20260906004915 97 291 9.0 12.0 0.00 0.00 0.00 27 1012.1
20260906004417 97 279 8.0 12.0 0.00 0.00 0.00 27 1012.1
20260906003915 97 297 4.0 13.0 0.00 0.00 0.00 28 1012.1
20260906003415 97 329 13.0 14.0 0.00 0.00 0.00 28 1012.1
20260906002916 97 265 7.0 8.0 0.00 0.00 0.00 28 1012.0
20260906002415 97 277 5.0 13.0 0.00 0.00 0.00 29 1012.0
20260906001917 98 285 7.0 11.0 0.00 0.00 0.00 28 1011.9
20260906001415 98 277 7.0 13.0 0.00 0.00 0.00 28 1012.0
20260906000915 98 283 5.0 11.0 0.00 0.00 0.00 28 1011.9
20260906000415 98 294 10.0 14.0 0.00 0.00 0.00 28 1011.8
20260905235915 99 274 14.0 14.0 0.00 0.00 0.00 28 1011.8
20260905235415 98 250 7.0 13.0 0.00 0.00 0.00 28 1011.9
20260905234915 99 281 6.0 10.0 0.00 0.00 0.00 28 1011.9
20260905234415 99 328 5.0 10.0 0.00 0.00 0.00 28 1011.9
20260905233915 99 266 4.0 10.0 0.00 0.00 0.00 28 1011.9
20260905233415 99 264 5.0 11.0 0.00 0.00 0.00 28 1011.9
20260905232915 99 244 5.0 10.0 0.00 0.00 0.00 28 1011.9
20260905232415 99 266 8.0 12.0 0.00 0.00 0.00 28 1011.9
20260905231915 99 311 5.0 11.0 0.00 0.00 0.00 28 1011.9
20260905231415 99 283 4.0 13.0 0.00 0.00 0.00 27 1012.0
20260905230915 99 269 4.0 11.0 0.00 0.00 0.00 28 1011.9
20260905230415 98 250 9.0 10.0 0.00 0.00 0.00 28 1011.9
20260905225915 99 254 4.0 9.0 0.00 0.00 0.00 28 1011.9
20260905225416 98 217 1.0 5.0 0.00 0.00 0.00 28 1011.9
20260905224915 100 342 2.0 10.0 0.00 0.00 0.00 27 1012.0
20260905224415 99 266 6.0 14.0 0.00 0.00 0.00 27 1012.1
20260905223915 99 302 3.0 10.0 0.00 0.00 0.00 27 1012.1
20260905223415 100 254 10.0 14.0 0.00 0.00 0.00 27 1012.1
20260905222920 100 280 4.0 14.0 0.00 0.00 0.00 27 1012.2
20260905222416 100 216 5.0 7.0 0.00 0.00 0.00 27 1012.3
20260905221915 100 5 5.0 10.0 0.00 0.00 0.00 27 1012.4
20260905221415 100 276 5.0 14.0 0.00 0.00 0.00 27 1012.4
20260905220915 100 273 9.0 14.0 0.00 0.00 0.00 27 1012.4
20260905220415 100 242 9.0 11.0 0.00 0.00 0.00 27 1012.5
20260905215916 100 249 8.0 12.0 0.00 0.00 0.00 27 1012.6
20260905215415 100 288 8.0 9.0 0.00 0.00 0.00 27 1012.6
20260905214915 100 308 5.0 9.0 0.00 0.00 0.00 27 1012.6
20260905214415 100 17 4.0 13.0 0.00 0.00 0.00 26 1012.7
20260905213915 101 262 7.0 10.0 0.00 0.00 0.00 26 1012.7
20260905213416 99 287 7.0 11.0 0.00 0.00 0.00 27 1012.8
20260905212915 98 270 2.0 8.0 0.00 0.00 0.00 27 1012.8
20260905212415 99 231 0.0 7.0 0.00 0.00 0.00 26 1012.9
20260905211915 99 292 5.0 10.0 0.00 0.00 0.00 27 1013.0
20260905211415 99 236 2.0 9.0 0.00 0.00 0.00 27 1013.1
20260905210915 100 275 7.0 13.0 0.00 0.00 0.00 26 1013.2
20260905210415 99 242 5.0 8.0 0.00 0.00 0.00 27 1013.2
20260905205915 98 241 4.0 7.0 0.00 0.00 0.00 27 1013.1
20260905205417 98 261 7.0 11.0 0.00 0.00 0.00 27 1013.2
20260905204915 98 253 6.0 12.0 0.00 0.00 0.00 26 1013.3
20260905204415 98 249 6.0 10.0 0.00 0.00 0.00 26 1013.4
20260905203915 99 220 5.0 12.0 0.00 0.00 0.00 26 1013.5
20260905203415 99 227 8.0 12.0 0.00 0.00 0.00 26 1013.5
20260905202915 99 253 9.0 10.0 0.00 0.00 0.00 25 1013.6
20260905202415 99 183 5.0 9.0 0.00 0.00 0.00 26 1013.7
20260905201917 98 195 2.0 4.0 0.00 0.00 0.00 26 1013.7
20260905201416 98 107 1.0 4.0 0.00 0.00 0.00 26 1013.8
20260905200916 98 248 4.0 9.0 0.00 0.00 0.00 26 1013.9
20260905200415 98 151 1.0 4.0 0.00 0.00 0.00 27 1013.8
20260905195915 99 219 1.0 8.0 0.00 0.00 0.00 26 1013.9
20260905195415 99 211 5.0 9.0 0.00 0.00 0.00 26 1014.0
20260905194915 98 252 4.0 11.0 0.00 0.00 0.00 26 1014.1
20260905194415 98 261 5.0 7.0 0.00 0.00 0.00 26 1014.2
20260905193916 97 192 2.0 4.0 0.00 0.00 0.00 27 1014.2
20260905193415 97 182 4.0 7.0 0.00 0.00 0.00 27 1014.2
20260905192915 97 194 1.0 6.0 0.00 0.00 0.00 26 1014.3
20260905192415 96 171 1.0 5.0 0.00 0.00 0.00 28 1014.4
20260905191915 97 270 4.0 7.0 0.00 0.00 0.00 27 1014.5
20260905191415 97 227 6.0 8.0 0.00 0.00 0.00 29 1014.7
20260905190916 97 221 3.0 7.0 0.00 0.00 0.00 28 1014.7
20260905190415 98 240 6.0 8.0 0.00 0.00 0.00 27 1014.7
20260905185915 97 235 4.0 13.0 0.00 0.00 0.00 29 1014.8
20260905185416 96 265 10.0 13.0 0.00 0.00 0.00 29 1014.7
20260905184915 96 191 4.0 6.0 0.00 0.00 0.00 28 1014.9
20260905184415 97 194 2.0 9.0 0.00 0.00 0.00 27 1015.0
20260905183915 98 215 5.0 7.0 0.00 0.00 0.00 28 1015.0
20260905183415 97 205 3.0 4.0 0.00 0.00 0.00 28 1015.0
20260905182915 96 230 2.0 6.0 0.00 0.00 0.00 27 1015.1
20260905182415 97 125 0.0 8.0 0.00 0.00 0.00 28 1015.1
20260905181915 96 103 8.0 9.0 0.00 0.00 0.00 29 1015.1
20260905181415 96 141 5.0 10.0 0.00 0.00 0.00 28 1015.1
20260905180916 96 129 2.0 10.0 0.00 0.00 0.00 30 1015.1
20260905180416 95 349 2.0 7.0 0.00 0.00 0.00 30 1015.1
20260905175915 95 242 6.0 8.0 0.00 0.00 0.00 31 1015.2
20260905175415 95 240 1.0 5.0 0.00 0.00 0.00 30 1015.1
20260905174915 95 255 1.0 4.0 0.00 0.00 0.00 31 1015.2
20260905174416 95 231 2.0 5.0 0.00 0.00 0.00 31 1015.2
20260905173915 94 248 5.0 6.0 0.00 0.00 0.00 31 1015.2
20260905173415 94 134 4.0 5.0 0.00 0.00 0.00 31 1015.2
20260905172915 93 234 0.0 5.0 0.00 0.00 0.00 31 1015.2
20260905172417 94 190 3.0 9.0 0.00 0.00 0.00 32 1015.3
20260905171915 94 221 7.0 7.0 0.00 0.00 0.00 32 1015.3
20260905171415 94 214 2.0 4.0 0.00 0.00 0.00 33 1015.4
20260905170915 94 208 4.0 7.0 0.00 0.00 0.00 33 1015.3
20260905170416 93 210 4.0 7.0 0.00 0.00 0.00 33 1015.3
20260905165915 92 209 5.0 7.0 0.00 0.00 0.00 33 1015.4
20260905165415 92 138 0.0 4.0 0.00 0.00 0.00 34 1015.3
20260905164917 92 188 1.0 4.0 0.00 0.00 0.00 33 1015.3
20260905164415 92 102 2.0 5.0 0.00 0.00 0.00 32 1015.4
20260905163915 91 92 3.0 3.0 0.00 0.00 0.00 34 1015.4
20260905163420 91 136 0.0 4.0 0.00 0.00 0.00 33 1015.4
20260905162915 91 242 3.0 8.0 0.00 0.00 0.00 34 1015.4
20260905162417 91 242 5.0 8.0 0.00 0.00 0.00 34 1015.3
20260905161916 90 246 6.0 6.0 0.00 0.00 0.00 35 1015.3
20260905161415 90 123 0.0 4.0 0.00 0.00 0.00 35 1015.3
20260905160915 90 131 0.0 4.0 0.00 0.00 0.00 36 1015.3
20260905160415 89 152 0.0 2.0 0.00 0.00 0.00 35 1015.3
20260905155915 90 200 0.0 5.0 0.00 0.00 0.00 36 1015.2
20260905155416 90 211 1.0 3.0 0.00 0.00 0.00 35 1015.0
20260905154915 89 174 0.0 3.0 0.00 0.00 0.00 37 1015.0
20260905154415 88 174 0.0 2.0 0.00 0.00 0.00 38 1015.1
20260905153915 89 188 2.0 4.0 0.00 0.00 0.00 37 1015.1
20260905153415 88 106 1.0 3.0 0.00 0.00 0.00 39 1015.0
20260905152915 88 132 0.0 5.0 0.00 0.00 0.00 39 1015.0
20260905152415 87 148 0.0 2.0 0.00 0.00 0.00 41 1015.0
20260905151915 86 148 0.0 2.0 0.00 0.00 0.00 42 1015.0
20260905151415 86 197 1.0 2.0 0.00 0.00 0.00 42 1015.0
20260905150917 86 194 2.0 3.0 0.00 0.00 0.00 42 1015.0
20260905150417 86 180 0.0 2.0 0.00 0.00 0.00 43 1015.0
20260905145915 85 180 2.0 2.0 0.00 0.00 0.00 43 1015.0
20260905145417 85 170 0.0 1.0 0.00 0.00 0.00 43 1014.9
20260905144915 85 180 0.0 2.0 0.00 0.00 0.00 43 1014.9
20260905144415 85 148 1.0 2.0 0.00 0.00 0.00 44 1015.0
20260905143915 84 138 0.0 1.0 0.00 0.00 0.00 48 1014.9
20260905143415 83 138 0.0 1.0 0.00 0.00 0.00 49 1014.9
20260905142915 83 138 0.0 0.0 0.00 0.00 0.00 49 1014.9
20260905142415 84 138 0.0 0.0 0.00 0.00 0.00 47 1014.8
20260905141915 84 138 0.0 1.0 0.00 0.00 0.00 46 1014.9
20260905141415 84 133 1.0 1.0 0.00 0.00 0.00 44 1014.7
20260905140915 84 121 1.0 2.0 0.00 0.00 0.00 44 1014.7
20260905140415 84 101 1.0 1.0 0.00 0.00 0.00 44 1014.6
20260905135915 84 118 0.0 3.0 0.00 0.00 0.00 46 1014.6
20260905135415 83 126 0.0 3.0 0.00 0.00 0.00 45 1014.5
20260905134917 83 113 1.0 3.0 0.00 0.00 0.00 45 1014.5
20260905134415 82 115 0.0 3.0 0.00 0.00 0.00 47 1014.4
20260905133917 82 110 2.0 4.0 0.00 0.00 0.00 47 1014.3
20260905133415 81 116 2.0 3.0 0.00 0.00 0.00 48 1014.3
20260905132915 81 103 2.0 3.0 0.00 0.00 0.00 48 1014.1
20260905132415 80 101 2.0 4.0 0.00 0.00 0.00 49 1014.2
20260905131915 80 111 2.0 3.0 0.00 0.00 0.00 50 1014.2
20260905131415 80 105 1.0 1.0 0.00 0.00 0.00 50 1014.1
20260905130916 79 125 0.0 1.0 0.00 0.00 0.00 51 1014.1
20260905130415 79 125 0.0 1.0 0.00 0.00 0.00 51 1014.0
20260905125915 79 125 0.0 1.0 0.00 0.00 0.00 50 1013.9
20260905125416 79 125 0.0 1.0 0.00 0.00 0.00 49 1013.9
20260905124915 80 125 0.0 0.0 0.00 0.00 0.00 49 1013.9
20260905124415 81 124 0.0 1.0 0.00 0.00 0.00 48 1013.9
20260905123915 81 124 0.0 1.0 0.00 0.00 0.00 47 1013.9
20260905123415 82 134 0.0 2.0 0.00 0.00 0.00 46 1013.8
20260905122915 82 113 1.0 3.0 0.00 0.00 0.00 45 1013.8
20260905122415 82 107 1.0 3.0 0.00 0.00 0.00 45 1013.8
20260905121915 82 96 1.0 3.0 0.00 0.00 0.00 45 1013.8
20260905121416 82 132 1.0 3.0 0.00 0.00 0.00 45 1013.9
20260905120915 82 128 0.0 2.0 0.00 0.00 0.00 45 1013.9
20260905120415 82 124 1.0 3.0 0.00 0.00 0.00 44 1013.9
20260905115916 82 110 2.0 3.0 0.00 0.00 0.00 45 1013.8
20260905115415 82 115 1.0 5.0 0.00 0.00 0.00 45 1013.8
20260905114915 81 121 2.0 3.0 0.00 0.00 0.00 46 1013.8
20260905114415 81 112 2.0 3.0 0.00 0.00 0.00 48 1013.8
20260905113915 80 111 3.0 3.0 0.00 0.00 0.00 49 1013.7
20260905113415 81 113 0.0 0.0 0.00 0.00 0.00 49 1013.8
20260905112917 81 144 0.0 1.0 0.00 0.00 0.00 49 1013.7
20260905112420 81 153 0.0 3.0 0.00 0.00 0.00 49 1013.7
20260905111916 81 189 3.0 4.0 0.00 0.00 0.00 48 1013.7
20260905111415 80 0 0.0 0.0 0.00 0.00 0.00 50 1013.5